Location: Coleto Creek Park and Reservoir
(28.7196°N, 97.1740°W)
Time: 04:08:33
(UTC-05:00)

HST - Visible Passes

Search period start: 31 October 2014 00:00
Search period end: 09 November 2014 23:00
Orbit: 546 x 550 km, 28.5° (Epoch: 30 October)

Date Brightness Start Highest point End Pass type
(mag) Time Alt. Az. Time Alt. Az. Time Alt. Az.
31 Oct 0.8 19:00:29 10° W 19:04:41 88° S 19:08:53 10° E visible
31 Oct 1.7 20:41:56 10° W 20:45:03 46° WSW 20:45:03 46° WSW visible
01 Nov 1.4 20:34:39 10° W 20:38:13 51° SW 20:38:13 51° SW visible
02 Nov 1.5 19:27:22 10° W 19:31:23 46° SSW 19:31:27 46° SSW visible
03 Nov 1.8 19:20:08 10° W 19:24:00 37° SSW 19:24:45 34° S visible
04 Nov 2.4 19:12:56 10° W 19:16:35 29° SSW 19:18:10 23° SSE visible
05 Nov 2.8 19:05:50 10° WSW 19:09:09 23° SSW 19:11:41 14° SSE visible
06 Nov 3.3 18:58:52 10° WSW 19:01:41 18° SSW 19:04:30 10° SSE visible
07 Nov 3.5 18:52:13 10° SW 18:54:12 13° SSW 18:56:11 10° S visible
